Preview of NWS' New Version of Forecast
This preview is not operational and should not be used for support decisions.
Latest weather observations around

Hagerstown, Washington County Regional Airport (KHGR)

Using English Units (Switch to International System of Units)
Date/ Time (EDT) Wind (mph) Vis. (mi) Weather Sky Cond. Temp (°F) Rel. Humidity Wind Chill (°F) Heat Index (°F) Pressure Precip. (in)
Air Dwpt 6 hour Altimeter (inHg) Sea level (inHg) 1 hr 3 hr 6 hr
Max Min
Jun 24 20:53 S 7 10 Clear CLR 80 71     74%   84 29.81 29.82      
Jun 24 19:53 S 9 10 Clear CLR 82 70     67%   86 29.81 29.82     0
Jun 24 18:53 S 11 10 Clear CLR 84 71     65%   89 29.8 29.81      
Jun 24 17:53 S 10 10 Clear   83 72     70%   88 29.82 29.83      
Jun 24 16:53 S 8 10 Mostly Cloudy FEW035 SCT050 BKN120 81 72     74%   85 29.84 29.85 0 0  
Jun 24 15:53 S 9 10 Mostly Cloudy FEW034 BKN060 BKN120 81 70     69%   84 29.86 29.87      
Jun 24 14:53 SW 6 10 Partly Cloudy FEW047 SCT110 85 67     55%   88 29.87 29.87      
Jun 24 13:53 SSW 6 10 Mostly Cloudy FEW055 BKN100 85 66     53%   87 29.86 29.87      
Jun 24 12:53 S 8 10 Mostly Cloudy SCT050 BKN065 84 64     51%   85 29.87 29.88      
Jun 24 11:53 5 10 Clear CLR 82 63     53%   83 29.89 29.9      
Jun 24 10:53 6 10 Partly Cloudy SCT110 80 63     56%   81 29.9 29.91      
Jun 24 09:53 Calm 10 Mostly Cloudy SCT045 SCT055 BKN070 76 62     62%   76 29.91 29.92      
Jun 24 08:53 Calm 10 Mostly Cloudy BKN065 BKN095 71 61     70%   71 29.92 29.93      
Jun 24 07:53 Calm 10 Clear CLR 68 60     76%     29.92 29.93      
Jun 24 06:53 Calm 10 Clear CLR 67 60     79%     29.91 29.93      
Jun 24 05:53 Calm 10 Clear CLR 64 59     84%     29.9 29.91      
Jun 24 04:53 Calm 10 Clear CLR 66 58     75%     29.89 29.9      
Jun 24 03:53 Calm 10 Clear CLR 67 58     73%     29.88 29.89      
Jun 24 02:53 Calm 10 Clear CLR 70 58     66%     29.89 29.9      
Jun 24 01:53 E 3 10 Clear CLR 69 58     68%     29.89 29.9      
Jun 24 00:53 SSE 3 10 Clear CLR 71 58     63%   71 29.92 29.93      
Jun 23 23:53 SE 6 10 Clear CLR 72 57     59%   72 29.94 29.95      
Jun 23 22:53 E 3 10 Clear CLR 73 57     57%   73 29.95 29.96      
Jun 23 21:53 SE 6 10 Clear CLR 76 57     52%   76 29.96 29.97      
Jun 23 20:53 SSE 5 10 Clear CLR 77 55     47%   77 29.95 29.96      
Jun 23 19:53 S 6 10 Clear CLR 81 54     39%   81 29.95 29.96      
Jun 23 18:53 S 5 10 Clear CLR 82 53     37%   81 29.95 29.97      
Jun 23 17:53 WSW 5 10 Clear CLR 83 52     34%   82 29.97 29.98      
Jun 23 16:53 6 10 Clear CLR 82 51     34%   81 29.98 30      
Jun 23 15:53 SW 8 10 Clear CLR 83 51     33%   81 30.01 30.02      
Jun 23 14:53 6 10 Clear CLR 81 50     34%   80 30.02 30.03      
Jun 23 13:53 Calm 10 Clear CLR 82 50     33%   81 30.03 30.04      
Jun 23 12:53 WNW 5 10 Clear CLR 80 50     35%   79 30.04 30.05      
Jun 23 11:53 6 10 Clear CLR 79 50     36%   78 30.07 30.09      
Jun 23 10:53 W 5 10 Clear CLR 77 49     37%   76 30.09 30.1      
Jun 23 09:53 E 3 10 Clear CLR 73 54     51%   72 30.11 30.12      
Jun 23 08:53 Calm 10 Clear CLR 69 55     61%     30.13 30.14      
Jun 23 07:53 Calm 10 Clear CLR 64 55     73%     30.14 30.15      
Jun 23 06:53 Calm 10 Clear CLR 59 54     83%     30.12 30.14      
Jun 23 05:53 Calm 10 Clear   59 52     78%     30.11 30.12      
Jun 23 04:53 Calm 10 Clear CLR 62 52     70%     30.09 30.11      
Jun 23 03:53 N 8 10 Clear CLR 62 53     72%     30.1 30.11      
Jun 23 02:53 W 3 10 Clear CLR 61 55     81%     30.1 30.11      
Jun 23 01:53 W 3 10 Clear CLR 62 54     75%     30.09 30.1      
Jun 23 00:53 E 5 10 Clear CLR 65 53     65%     30.08 30.09      
Jun 22 23:53 E 5 10 Clear CLR 67 53     61%     30.07 30.09      
Jun 22 22:53 NE 3 10 Clear CLR 69 53     57%     30.06 30.08      
Jun 22 21:53 Calm 10 Clear CLR 73 51     46%   72 30.04 30.06      
Jun 22 20:53 Calm 10 Clear CLR 76 52     43%   75 30.03 30.04      
Jun 22 19:53 NW 7 10 Clear CLR 78 51     39%   77 30.02 30.03      
Jun 22 18:53 NNW 9 10 Clear CLR 80 49     34%   79 30.02 30.03      
Jun 22 17:53 NNW 9 10 Clear CLR 81 49     33%   80 30.01 30.03      
Jun 22 16:53 NNW 9 10 Clear CLR 81 48     32%   80 30.02 30.03      
Jun 22 15:53 N 7 10 Clear CLR 81 49     33%   80 30.02 30.03      
Jun 22 14:53   10 Clear CLR 80 48     33%   79 30.02 30.04      
Jun 22 13:53 NNW 11 10 Clear CLR 79 48     34%   78 30.03 30.04      
Jun 22 12:53 N 13 10 Clear CLR 78 47     33%   77 30.04 30.05      
Jun 22 11:53 N 15 10 Clear CLR 77 49     37%   76 30.04 30.05      
Jun 22 10:53 NW 8 10 Clear CLR 75 53     46%   74 30.04 30.06      
Jun 22 09:53 5 10 Clear CLR 71 52     51%   70 30.04 30.05      
Jun 22 08:53 W 5 10 Clear CLR 67 49     52%     30.03 30.05      
Jun 22 07:53 Calm 10 Clear CLR 65 48     54%     30.02 30.04      
Jun 22 06:53 NNW 3 10 Clear CLR 63 46     54%     30.01 30.03      
Jun 22 05:53 WNW 6 10 Clear CLR 60 46     60%     30.01 30.02      
Jun 22 04:53 Calm 10 Clear CLR 61 46     58%     30 30.01      
Jun 22 03:53 W 3 10 Clear CLR 63 46     54%     29.99 30      
Jun 22 02:53 W 5 10 Clear CLR 61 47     60%     29.98 30      
Jun 22 01:53 N 3 10 Clear CLR 64 48     56%     29.98 30      
Jun 22 00:53 NW 6 10 Clear CLR 67 48     51%     29.98 29.99      
Jun 21 23:53 NW 7 10 Clear CLR 68 49     50%     29.98 30      
May 15 02:07 S 7 10 Cloudy BKN055 OVC065 66 63     90%     29.96        
May 14 18:53 SSW 7 5 Light Rain and Fog/Mist FEW090 OVC110 72 68     87%   73 29.95 29.96 0    
May 13 23:01 Calm 5 Light Rain and Fog/Mist SCT007 BKN019 OVC110 60 59     96%     30.03   0    
May 13 03:46 NNE 5 2 Rain and Fog/Mist SCT008 BKN029 OVC049 63 62     97%     30.07   0    
May 13 03:18 NW 8 2 Thunderstorms and Rain and Fog/Mist FEW007 BKN031 OVC042 63 62     97%     30.08   0    
May 12 18:53 N 15 5 Light Rain FEW075 BKN090 OVC120 71 63     76%   71   30.02 0    
May 12 15:53 S 9 10 Clear CLR 86 63     46%   87 29.93 29.95      
May 12 08:53 NW 3 10 Clear CLR 59 52     78%     30.1 30.12      
May 12 03:53 NNW 13 10 Clear   59 47     64%     30.04 30.06      
May 12 00:53 NW 6 10 Mostly Clear FEW075 61 51     70%     30.05 30.07      
Jun 11 15:53 W 13 10 Clear CLR 91 60     36%   91 30.09 30.1      
Jun 11 12:53 WSW 13 10 Clear CLR 88 62     42%   88 30.12 30.13      
Jun 11 03:53 S 7 10 Clear CLR 70 60     71%     30.08 30.08      
Jun 08 13:53 NE 7 10 Mostly Cloudy BKN060 74 46     37%   73 29.94 29.96